TimePST,TemperatureF,Dew PointF,Humidity,Sea Level PressureIn,VisibilityMPH,Wind Direction,Wind SpeedMPH,Gust SpeedMPH,PrecipitationIn,Events,Conditions,WindDirDegrees,DateUTC
12:53 AM,51.1,32.0,48,29.92,10.0,Calm,Calm,-,N/A,,Clear,0,2012-12-12 08:53:00
1:53 AM,46.9,34.0,61,29.92,10.0,Calm,Calm,-,N/A,,Clear,0,2012-12-12 09:53:00
2:53 AM,48.0,30.9,52,29.91,10.0,Calm,Calm,-,N/A,,Clear,0,2012-12-12 10:53:00
3:53 AM,46.0,28.9,51,29.89,10.0,SE,8.1,-,N/A,,Clear,130,2012-12-12 11:53:00
4:53 AM,46.9,28.0,48,29.89,10.0,SE,10.4,-,N/A,,Clear,130,2012-12-12 12:53:00
5:53 AM,45.0,28.0,52,29.91,10.0,South,3.5,-,N/A,,Clear,170,2012-12-12 13:53:00
6:53 AM,41.0,30.0,65,29.92,10.0,Calm,Calm,-,N/A,,Clear,0,2012-12-12 14:53:00
7:53 AM,52.0,28.0,40,29.93,10.0,SSE,4.6,-,N/A,,Clear,160,2012-12-12 15:53:00
8:53 AM,57.0,33.1,40,29.94,10.0,ESE,6.9,-,N/A,,Clear,110,2012-12-12 16:53:00
9:53 AM,62.1,41.0,46,29.94,10.0,ESE,6.9,-,N/A,,Clear,120,2012-12-12 17:53:00
10:53 AM,64.9,48.0,54,29.91,10.0,ESE,9.2,-,N/A,,Clear,110,2012-12-12 18:53:00
11:02 AM,66.2,48.2,52,29.91,10.0,ESE,9.2,-,N/A,,Partly Cloudy,110,2012-12-12 19:02:00
11:53 AM,68.0,46.0,45,29.88,10.0,South,8.1,-,N/A,,Clear,170,2012-12-12 19:53:00
12:53 PM,71.1,46.9,42,29.85,10.0,SSE,8.1,-,N/A,,Clear,150,2012-12-12 20:53:00
1:53 PM,72.0,50.0,46,29.82,10.0,SSE,5.8,-,N/A,,Clear,150,2012-12-12 21:53:00
2:53 PM,73.9,48.0,40,29.80,10.0,SE,9.2,-,N/A,,Clear,140,2012-12-12 22:53:00
3:53 PM,72.0,39.0,30,29.80,10.0,SSW,3.5,-,N/A,,Clear,200,2012-12-12 23:53:00
4:53 PM,69.1,42.1,38,29.81,10.0,South,5.8,-,N/A,,Clear,190,2012-12-13 00:53:00
5:53 PM,64.9,39.9,40,29.81,10.0,Calm,Calm,-,N/A,,Clear,0,2012-12-13 01:53:00
6:53 PM,64.9,46.9,52,29.82,10.0,SE,3.5,-,N/A,,Clear,130,2012-12-13 02:53:00
7:53 PM,63.0,43.0,48,29.82,10.0,North,6.9,-,N/A,,Clear,360,2012-12-13 03:53:00
8:53 PM,63.0,41.0,45,29.83,10.0,NW,8.1,-,N/A,,Clear,320,2012-12-13 04:53:00
9:53 PM,60.1,43.0,53,29.84,10.0,WNW,8.1,-,N/A,,Clear,300,2012-12-13 05:53:00
10:53 PM,59.0,44.1,58,29.83,10.0,West,9.2,-,N/A,,Clear,270,2012-12-13 06:53:00
11:53 PM,53.1,43.0,69,29.82,10.0,West,5.8,-,N/A,,Clear,280,2012-12-13 07:53:00